EW6063 Weather Reports


time (UTC)temp
C
wind
direction
speed
KPH
gust
KPH
rain 1hr
cm
rain 24hr
cm
rain mn
cm
humidity
%
barometer
mb
20260906184105 37 30 3.2 6.4 0.00 0.00 0.00 43 1011.5
20260906183559 37 31 3.2 9.7 0.00 0.00 0.00 40 1011.5
20260906183059 37 26 4.8 12.9 0.00 0.00 0.00 39 1011.5
20260906182557 37 20 6.4 12.9 0.00 0.00 0.00 38 1011.4
20260906182057 38 49 3.2 8.0 0.00 0.00 0.00 38 1011.3
20260906181556 37 343 1.6 6.4 0.00 0.00 0.00 37 1011.3
20260906181054 37 27 1.6 6.4 0.00 0.00 0.00 37 1011.3
20260906180554 37 9 1.6 6.4 0.00 0.00 0.00 38 1011.3
20260906180053 37 275 0.0 6.4 0.00 0.00 0.00 37 1011.6
20260906175555 37 234 1.6 4.8 0.00 0.00 0.00 39 1011.8
20260906175050 37 113 0.0 3.2 0.00 0.00 0.00 40 1011.8
20260906174550 37 5 0.0 0.0 0.00 0.00 0.00 40 1012.1
20260906174050 36 5 0.0 3.2 0.00 0.00 0.00 40 1012.2
20260906173549 36 5 0.0 3.2 0.00 0.00 0.00 41 1012.3
20260906173054 36 5 0.0 3.2 0.00 0.00 0.00 41 1012.4
20260906172550 36 5 0.0 3.2 0.00 0.00 0.00 42 1012.6
20260906172146 36 5 0.0 0.0 0.00 0.00 0.00 42 1012.6
20260906171547 36 5 0.0 0.0 0.00 0.00 0.00 42 1012.7
20260906171045 36 5 0.0 0.0 0.00 0.00 0.00 43 1012.8
20260906170546 36 5 0.0 0.0 0.00 0.00 0.00 43 1012.9
20260906170046 36 5 0.0 0.0 0.00 0.00 0.00 42 1013.0
20260906165546 36 5 0.0 0.0 0.00 0.00 0.00 42 1013.0
20260906165049 36 5 0.0 0.0 0.00 0.00 0.00 42 1013.1
20260906164546 37 5 0.0 0.0 0.00 0.00 0.00 42 1013.1
20260906164044 37 5 0.0 0.0 0.00 0.00 0.00 42 1013.1
20260906163542 37 5 0.0 1.6 0.00 0.00 0.00 43 1013.1
20260906163041 36 5 0.0 1.6 0.00 0.00 0.00 44 1013.2
20260906162539 36 5 0.0 1.6 0.00 0.00 0.00 44 1013.2
20260906162037 36 5 0.0 3.2 0.00 0.00 0.00 45 1013.3
20260906161537 36 5 0.0 3.2 0.00 0.00 0.00 46 1013.3
20260906161035 35 5 0.0 3.2 0.00 0.00 0.00 47 1013.3
20260906160535 35 5 0.0 0.0 0.00 0.00 0.00 49 1013.4
20260906160032 34 5 0.0 1.6 0.00 0.00 0.00 51 1013.3
20260906155530 33 5 0.0 1.6 0.00 0.00 0.00 52 1013.3
20260906155028 33 5 0.0 0.0 0.00 0.00 0.00 54 1013.4
20260906154530 32 5 0.0 1.6 0.00 0.00 0.00 56 1013.2
20260906154026 31 5 0.0 1.6 0.00 0.00 0.00 58 1013.3
20260906153524 31 5 0.0 3.2 0.00 0.00 0.00 60 1013.2
20260906153026 30 5 0.0 3.2 0.00 0.00 0.00 63 1013.2
20260906152525 29 5 0.0 0.0 0.00 0.00 0.00 64 1013.2
20260906152020 28 5 0.0 0.0 0.00 0.00 0.00 66 1013.2
20260906151520 28 5 0.0 0.0 0.00 0.00 0.00 68 1013.2
20260906151019 27 5 0.0 0.0 0.00 0.00 0.00 70 1013.2
20260906150516 27 5 0.0 0.0 0.00 0.00 0.00 72 1013.2
20260906150015 27 5 0.0 0.0 0.00 0.00 0.00 74 1013.3
20260906145514 26 5 0.0 0.0 0.00 0.00 0.00 75 1013.4
20260906145014 26 5 0.0 0.0 0.00 0.00 0.00 76 1013.3
20260906144518 26 5 0.0 0.0 0.00 0.00 0.00 78 1013.3
20260906144012 25 5 0.0 0.0 0.00 0.00 0.00 78 1013.3
20260906143514 25 5 0.0 0.0 0.00 0.00 0.00 79 1013.3
20260906143013 25 5 0.0 0.0 0.00 0.00 0.00 80 1013.3
20260906142511 25 5 0.0 0.0 0.00 0.00 0.00 81 1013.3
20260906142013 24 5 0.0 0.0 0.00 0.00 0.00 82 1013.3
20260906141520 24 5 0.0 0.0 0.00 0.00 0.00 83 1013.4
20260906141010 24 5 0.0 0.0 0.00 0.00 0.00 83 1013.4
20260906140509 23 5 0.0 0.0 0.00 0.00 0.00 83 1013.4
20260906140008 23 5 0.0 0.0 0.00 0.00 0.00 84 1013.3
20260906135506 23 5 0.0 0.0 0.00 0.00 0.00 83 1013.2
20260906135006 23 5 0.0 0.0 0.00 0.00 0.00 84 1013.1
20260906134504 23 5 0.0 0.0 0.00 0.00 0.00 84 1013.1
20260906134007 23 5 0.0 0.0 0.00 0.00 0.00 84 1013.0
20260906133502 23 5 0.0 0.0 0.00 0.00 0.00 84 1013.0
20260906133002 23 5 0.0 0.0 0.00 0.00 0.00 84 1012.9
20260906132501 22 5 0.0 0.0 0.00 0.00 0.00 83 1012.9
20260906132000 22 5 0.0 0.0 0.00 0.00 0.00 83 1012.9
20260906131601 22 5 0.0 0.0 0.00 0.00 0.00 83 1012.8
20260906131103 22 5 0.0 0.0 0.00 0.00 0.00 83 1012.8
20260906130559 22 5 0.0 0.0 0.00 0.00 0.00 82 1012.8
20260906130145 22 5 0.0 0.0 0.00 0.00 0.00 82 1012.7
20260906125558 22 5 0.0 0.0 0.00 0.00 0.00 82 1012.7
20260906125059 22 5 0.0 0.0 0.00 0.00 0.00 81 1012.6
20260906124607 22 5 0.0 0.0 0.00 0.00 0.00 81 1012.6
20260906124056 22 5 0.0 0.0 0.00 0.00 0.00 81 1012.6
20260906123555 22 5 0.0 0.0 0.00 0.00 0.00 81 1012.5
20260906123054 22 5 0.0 0.0 0.00 0.00 0.00 80 1012.4
20260906122554 22 5 0.0 0.0 0.00 0.00 0.00 81 1012.4
20260906122054 22 5 0.0 0.0 0.00 0.00 0.00 81 1012.3
20260906121604 22 5 0.0 0.0 0.00 0.00 0.00 81 1012.3
20260906121052 22 5 0.0 0.0 0.00 0.00 0.00 81 1012.2
20260906120550 22 5 0.0 0.0 0.00 0.00 0.00 80 1012.2
20260906120104 22 5 0.0 0.0 0.00 0.00 0.00 80 1012.3
20260906115549 22 5 0.0 0.0 0.00 0.00 0.00 80 1012.3
20260906115048 23 5 0.0 0.0 0.00 0.00 0.00 80 1012.2
20260906114548 23 5 0.0 0.0 0.00 0.00 0.00 80 1012.2
20260906114046 23 5 0.0 0.0 0.00 0.00 0.00 80 1012.1
20260906113546 23 5 0.0 0.0 0.00 0.00 0.00 79 1012.1
20260906113051 23 5 0.0 0.0 0.00 0.00 0.00 79 1012.1
20260906112544 23 5 0.0 0.0 0.00 0.00 0.00 79 1012.0
20260906112044 23 5 0.0 0.0 0.00 0.00 0.00 79 1012.0
20260906111543 23 5 0.0 0.0 0.00 0.00 0.00 79 1011.8
20260906111042 23 5 0.0 0.0 0.00 0.00 0.00 78 1011.8
20260906110541 23 5 0.0 0.0 0.00 0.00 0.00 78 1011.8
20260906110040 23 5 0.0 0.0 0.00 0.00 0.00 78 1011.7
20260906105540 23 5 0.0 0.0 0.00 0.00 0.00 78 1011.8
20260906105040 23 5 0.0 0.0 0.00 0.00 0.00 77 1011.8
20260906104539 23 5 0.0 0.0 0.00 0.00 0.00 77 1011.8
20260906104038 23 5 0.0 0.0 0.00 0.00 0.00 77 1011.8
20260906103538 23 5 0.0 0.0 0.00 0.00 0.00 77 1011.8
20260906103049 23 5 0.0 0.0 0.00 0.00 0.00 76 1011.7
20260906102541 23 5 0.0 0.0 0.00 0.00 0.00 76 1011.6
20260906102036 23 5 0.0 0.0 0.00 0.00 0.00 76 1011.7
20260906101536 23 5 0.0 0.0 0.00 0.00 0.00 76 1011.7
20260906101038 23 5 0.0 0.0 0.00 0.00 0.00 76 1011.7
20260906100535 24 5 0.0 0.0 0.00 0.00 0.00 75 1011.6
20260906100036 24 5 0.0 0.0 0.00 0.00 0.00 75 1011.5
20260906095533 24 5 0.0 0.0 0.00 0.00 0.00 75 1011.5
20260906095033 24 5 0.0 0.0 0.00 0.00 0.00 75 1011.5
20260906094532 24 5 0.0 0.0 0.00 0.00 0.00 74 1011.5
20260906094031 24 5 0.0 0.0 0.00 0.00 0.00 74 1011.3
20260906093534 24 5 0.0 0.0 0.00 0.00 0.00 74 1011.2
20260906093031 24 5 0.0 0.0 0.00 0.00 0.00 74 1011.2
20260906092530 25 5 0.0 0.0 0.00 0.00 0.00 73 1011.1
20260906092030 25 5 0.0 0.0 0.00 0.00 0.00 73 1011.1
20260906091530 25 5 0.0 0.0 0.00 0.00 0.00 73 1011.2
20260906091029 25 5 0.0 0.0 0.00 0.00 0.00 72 1011.2
20260906090529 25 5 0.0 0.0 0.00 0.00 0.00 72 1011.2
20260906090028 25 5 0.0 0.0 0.00 0.00 0.00 72 1011.1
20260906085528 25 5 0.0 0.0 0.00 0.00 0.00 72 1011.0
20260906085026 25 5 0.0 0.0 0.00 0.00 0.00 72 1011.0
20260906084526 25 5 0.0 0.0 0.00 0.00 0.00 73 1011.0
20260906084026 25 5 0.0 0.0 0.00 0.00 0.00 73 1010.9
20260906083524 25 5 0.0 0.0 0.00 0.00 0.00 73 1010.8
20260906083024 25 5 0.0 0.0 0.00 0.00 0.00 72 1010.8
20260906082523 25 5 0.0 0.0 0.00 0.00 0.00 70 1010.8
20260906082024 25 5 0.0 0.0 0.00 0.00 0.00 70 1010.9
20260906081525 25 5 0.0 0.0 0.00 0.00 0.00 70 1010.9
20260906081022 25 5 0.0 0.0 0.00 0.00 0.00 71 1011.0
20260906080521 26 5 0.0 0.0 0.00 0.00 0.00 70 1011.0
20260906080021 26 5 0.0 0.0 0.00 0.00 0.00 70 1011.0
20260906075519 26 5 0.0 0.0 0.00 0.00 0.00 70 1011.0
20260906075019 26 5 0.0 0.0 0.00 0.00 0.00 70 1011.0
20260906074518 26 5 0.0 0.0 0.00 0.00 0.00 69 1011.1
20260906074017 26 5 0.0 0.0 0.00 0.00 0.00 68 1011.0
20260906073521 26 5 0.0 0.0 0.00 0.00 0.00 69 1011.2
20260906073015 26 5 0.0 0.0 0.00 0.00 0.00 68 1011.2
20260906072515 26 5 0.0 0.0 0.00 0.00 0.00 68 1011.1
20260906072018 26 5 0.0 0.0 0.00 0.00 0.00 68 1011.1
20260906071515 26 5 0.0 0.0 0.00 0.00 0.00 68 1011.1
20260906071015 26 5 0.0 0.0 0.00 0.00 0.00 67 1011.2
20260906070515 26 5 0.0 0.0 0.00 0.00 0.00 67 1011.3
20260906070014 26 5 0.0 0.0 0.00 0.00 0.00 67 1011.3
20260906065517 27 5 0.0 0.0 0.00 0.00 0.00 68 1011.2
20260906065015 26 5 0.0 0.0 0.00 0.00 0.00 67 1011.3
20260906064517 26 5 0.0 0.0 0.00 0.00 0.00 66 1011.3
20260906064013 26 5 0.0 0.0 0.00 0.00 0.00 66 1011.2
20260906063515 26 5 0.0 0.0 0.00 0.00 0.00 66 1011.3
20260906063013 26 5 0.0 0.0 0.00 0.00 0.00 66 1011.3
20260906062512 26 5 0.0 0.0 0.00 0.00 0.00 66 1011.3
20260906062012 26 5 0.0 0.0 0.00 0.00 0.00 67 1011.4
20260906061521 26 5 0.0 3.2 0.00 0.00 0.00 67 1011.3
20260906061010 26 5 0.0 4.8 0.00 0.00 0.00 68 1011.4
20260906060510 26 5 0.0 3.2 0.00 0.00 0.00 68 1011.4
20260906060009 26 5 0.0 3.2 0.00 0.00 0.00 68 1011.4
20260906055511 27 5 0.0 4.8 0.00 0.00 0.00 68 1011.4
20260906055008 27 5 3.2 4.8 0.00 0.00 0.00 68 1011.3
20260906054521 27 5 0.0 3.2 0.00 0.00 0.00 67 1011.3
20260906054006 27 5 0.0 1.6 0.00 0.00 0.00 65 1011.2
20260906053507 27 5 0.0 0.0 0.00 0.00 0.00 65 1011.3
20260906053005 27 5 0.0 0.0 0.00 0.00 0.00 65 1011.3
20260906052505 27 5 0.0 0.0 0.00 0.00 0.00 65 1011.3
20260906052007 27 5 0.0 0.0 0.00 0.00 0.00 66 1011.2
20260906051502 27 5 0.0 0.0 0.00 0.00 0.00 66 1011.2
20260906051005 27 5 0.0 0.0 0.00 0.00 0.00 65 1011.2
20260906050500 27 5 0.0 1.6 0.00 0.00 0.00 65 1011.1
20260906050100 27 5 0.0 1.6 0.00 0.00 0.00 65 1011.1
20260906045603 27 5 0.0 0.0 0.00 0.00 0.00 65 1011.2
20260906045059 27 5 0.0 0.0 0.00 0.00 0.00 64 1011.2
20260906044559 27 5 0.0 1.6 0.00 0.00 0.00 64 1011.1
20260906044059 27 5 0.0 1.6 0.00 0.00 0.00 64 1011.2
20260906043602 27 5 0.0 0.0 0.00 0.00 0.00 63 1011.2
20260906043102 27 5 0.0 1.6 0.00 0.00 0.00 64 1011.2
20260906042600 27 5 0.0 1.6 0.00 0.00 0.00 64 1011.3
20260906042058 27 5 0.0 1.6 0.00 0.00 0.00 64 1011.3
20260906041558 27 5 0.0 1.6 0.00 0.00 0.00 64 1011.2
20260906041058 27 5 0.0 0.0 0.00 0.00 0.00 61 1011.2
20260906040558 27 5 0.0 0.0 0.00 0.00 0.00 62 1011.2
20260906040058 28 5 0.0 0.0 0.00 0.00 0.00 63 1011.1
20260906035557 28 5 0.0 0.0 0.00 0.00 0.00 63 1011.2
20260906035058 28 5 0.0 0.0 0.00 0.00 0.00 62 1011.2
20260906034603 28 5 0.0 0.0 0.00 0.00 0.00 62 1011.1
20260906034056 28 5 0.0 3.2 0.00 0.00 0.00 61 1011.0
20260906033556 28 5 0.0 3.2 0.00 0.00 0.00 61 1010.9
20260906033057 28 5 0.0 0.0 0.00 0.00 0.00 60 1010.9
20260906032556 28 5 0.0 0.0 0.00 0.00 0.00 59 1010.8
20260906032056 28 5 0.0 0.0 0.00 0.00 0.00 58 1010.8
20260906031556 28 5 0.0 0.0 0.00 0.00 0.00 58 1010.8
20260906031059 29 5 0.0 0.0 0.00 0.00 0.00 58 1010.8
20260906030556 29 5 0.0 0.0 0.00 0.00 0.00 58 1010.8
20260906030056 29 5 0.0 0.0 0.00 0.00 0.00 58 1010.8
20260906025555 29 5 0.0 0.0 0.00 0.00 0.00 57 1010.8
20260906025055 30 5 0.0 0.0 0.00 0.00 0.00 56 1010.7
20260906024555 30 5 0.0 0.0 0.00 0.00 0.00 56 1010.7
20260906024054 30 5 0.0 0.0 0.00 0.00 0.00 56 1010.6
20260906023554 30 5 0.0 0.0 0.00 0.00 0.00 56 1010.6
20260906023057 30 5 0.0 0.0 0.00 0.00 0.00 55 1010.6
20260906022553 30 5 0.0 0.0 0.00 0.00 0.00 54 1010.5
20260906022053 31 5 0.0 0.0 0.00 0.00 0.00 52 1010.4
20260906021553 31 5 0.0 0.0 0.00 0.00 0.00 52 1010.3
20260906021052 31 5 0.0 0.0 0.00 0.00 0.00 53 1010.2
20260906020553 31 5 0.0 0.0 0.00 0.00 0.00 53 1010.2
20260906020053 31 5 0.0 0.0 0.00 0.00 0.00 52 1010.1
20260906015552 32 5 0.0 0.0 0.00 0.00 0.00 51 1010.2
20260906015052 32 5 0.0 0.0 0.00 0.00 0.00 50 1010.1
20260906014554 32 5 0.0 1.6 0.00 0.00 0.00 51 1009.9
20260906014051 32 5 0.0 1.6 0.00 0.00 0.00 50 1010.0
20260906013551 32 5 0.0 1.6 0.00 0.00 0.00 48 1009.9
20260906013054 33 5 0.0 1.6 0.00 0.00 0.00 48 1009.9
20260906012552 33 5 0.0 1.6 0.00 0.00 0.00 48 1009.9
20260906012052 33 5 0.0 1.6 0.00 0.00 0.00 47 1009.8
20260906011554 33 5 0.0 1.6 0.00 0.00 0.00 47 1009.7
20260906011051 33 5 0.0 0.0 0.00 0.00 0.00 46 1009.6
20260906010550 34 5 0.0 0.0 0.00 0.00 0.00 45 1009.7
20260906010050 34 5 0.0 0.0 0.00 0.00 0.00 44 1009.6
20260906005549 35 5 0.0 0.0 0.00 0.00 0.00 44 1009.4
20260906005052 35 5 0.0 0.0 0.00 0.00 0.00 42 1009.4
20260906004549 35 5 0.0 0.0 0.00 0.00 0.00 41 1009.4
20260906004051 35 5 0.0 0.0 0.00 0.00 0.00 43 1009.4
20260906003549 35 5 0.0 0.0 0.00 0.00 0.00 41 1009.4
20260906003048 35 5 0.0 0.0 0.00 0.00 0.00 41 1009.4
20260906002546 36 5 0.0 0.0 0.00 0.00 0.00 40 1009.4
20260906002048 36 5 0.0 0.0 0.00 0.00 0.00 41 1009.4
20260906001546 36 5 0.0 0.0 0.00 0.00 0.00 39 1009.4
20260906001045 36 5 0.0 0.0 0.00 0.00 0.00 39 1009.5
20260906000545 36 5 0.0 0.0 0.00 0.00 0.00 38 1009.5
20260906000046 36 5 0.0 0.0 0.00 0.00 0.00 38 1009.5
20260905235545 36 5 0.0 0.0 0.00 0.00 0.00 38 1009.5
20260905235047 36 5 0.0 0.0 0.00 0.00 0.00 38 1009.6
20260905234545 36 5 0.0 0.0 0.00 0.00 0.00 37 1009.6
20260905234044 37 5 0.0 0.0 0.00 0.00 0.00 37 1009.6
20260905233544 37 5 0.0 0.0 0.00 0.00 0.00 38 1009.5
20260905233046 37 5 0.0 0.0 0.00 0.00 0.00 38 1009.5
20260905232544 37 5 0.0 0.0 0.00 0.00 0.00 37 1009.4
20260905232044 37 5 0.0 0.0 0.00 0.00 0.00 37 1009.4
20260905231546 37 5 0.0 3.2 0.00 0.00 0.00 36 1009.4
20260905231046 37 5 0.0 3.2 0.00 0.00 0.00 36 1009.4
20260905230544 37 5 0.0 1.6 0.00 0.00 0.00 37 1009.3
20260905230044 37 5 0.0 1.6 0.00 0.00 0.00 36 1009.4
20260905225543 37 5 0.0 3.2 0.00 0.00 0.00 37 1009.4
20260905225043 37 5 0.0 3.2 0.00 0.00 0.00 36 1009.4
20260905224543 37 5 0.0 3.2 0.00 0.00 0.00 36 1009.4
20260905224042 37 9 0.0 1.6 0.00 0.00 0.00 36 1009.3
20260905223542 37 9 0.0 1.6 0.00 0.00 0.00 37 1009.3
20260905223042 37 9 0.0 3.2 0.00 0.00 0.00 37 1009.4
20260905222542 37 9 0.0 3.2 0.00 0.00 0.00 37 1009.4
20260905222041 37 9 0.0 3.2 0.00 0.00 0.00 37 1009.4
20260905221541 37 9 0.0 3.2 0.00 0.00 0.00 36 1009.4
20260905221040 37 9 0.0 4.8 0.00 0.00 0.00 36 1009.6
20260905220540 37 9 1.6 4.8 0.00 0.00 0.00 37 1009.7
20260905220039 37 9 0.0 3.2 0.00 0.00 0.00 36 1009.7
20260905215539 37 9 0.0 3.2 0.00 0.00 0.00 36 1009.7
20260905215038 37 9 0.0 0.0 0.00 0.00 0.00 37 1009.7
20260905214539 37 9 0.0 1.6 0.00 0.00 0.00 36 1009.8
20260905214038 38 9 0.0 1.6 0.00 0.00 0.00 36 1009.8
20260905213538 38 9 0.0 1.6 0.00 0.00 0.00 35 1009.8
20260905213038 38 9 0.0 3.2 0.00 0.00 0.00 35 1009.8
20260905212539 38 9 0.0 4.8 0.00 0.00 0.00 35 1009.9
20260905212038 38 9 1.6 4.8 0.00 0.00 0.00 35 1009.9
20260905211540 38 5 1.6 4.8 0.00 0.00 0.00 35 1010.0
20260905211036 38 14 1.6 4.8 0.00 0.00 0.00 35 1010.0
20260905210536 38 97 0.0 4.8 0.00 0.00 0.00 35 1010.1
20260905210035 38 97 0.0 4.8 0.00 0.00 0.00 35 1010.2
20260905205533 38 97 0.0 4.8 0.00 0.00 0.00 35 1010.3
20260905205033 38 157 0.0 4.8 0.00 0.00 0.00 35 1010.4
20260905204530 38 157 0.0 4.8 0.00 0.00 0.00 35 1010.4
20260905204028 38 50 0.0 6.4 0.00 0.00 0.00 36 1010.5
20260905203528 38 49 1.6 6.4 0.00 0.00 0.00 36 1010.6
20260905203026 38 185 0.0 6.4 0.00 0.00 0.00 36 1010.6
20260905202524 38 35 0.0 6.4 0.00 0.00 0.00 36 1010.7
20260905202023 38 342 1.6 4.8 0.00 0.00 0.00 37 1010.8
20260905201522 38 315 0.0 4.8 0.00 0.00 0.00 37 1010.9
20260905201020 38 346 0.0 3.2 0.00 0.00 0.00 37 1011.0
20260905200522 38 346 0.0 3.2 0.00 0.00 0.00 37 1011.1
20260905200024 38 321 0.0 3.2 0.00 0.00 0.00 37 1011.2
20260905195515 38 321 0.0 6.4 0.00 0.00 0.00 36 1011.1
20260905195014 38 54 0.0 4.8 0.00 0.00 0.00 36 1011.3
20260905194513 37 57 0.0 6.4 0.00 0.00 0.00 37 1011.3
20260905194012 37 55 0.0 6.4 0.00 0.00 0.00 38 1011.3
20260905193512 37 210 1.6 4.8 0.00 0.00 0.00 38 1011.4
20260905193007 37 221 0.0 4.8 0.00 0.00 0.00 38 1011.5
20260905192506 37 257 0.0 6.4 0.00 0.00 0.00 38 1011.5
20260905192005 37 196 1.6 6.4 0.00 0.00 0.00 39 1011.8
20260905191505 37 24 1.6 3.2 0.00 0.00 0.00 39 1011.8
20260905191004 37 24 0.0 3.2 0.00 0.00 0.00 39 1011.9
20260905190504 37 24 0.0 1.6 0.00 0.00 0.00 40 1011.9
20260905190004 37 24 0.0 4.8 0.00 0.00 0.00 40 1012.0
20260905185503 37 24 0.0 4.8 0.00 0.00 0.00 39 1012.1
20260905185003 37 33 0.0 4.8 0.00 0.00 0.00 40 1012.2
20260905184507 37 33 1.6 4.8 0.00 0.00 0.00 40 1012.3